Location: Dos Palmas
(32.4468°N, 116.8732°W)
Time: 00:46:59
(UTC+00:00)

Cosmos 1025 Rocket - Pass Details

Date: 20 June 2021
Orbit: 593 x 619 km, 82.5° (Epoch: 27 July)

Event Time Altitude Azimuth Distance (km) Brightness Sun altitude
Exits shadow 04:15:20 22° 111° (ESE) 1,359 4.2 -14.3°
Maximum altitude 04:16:22 24° 89° (E) 1,284 4.3 -14.5°
Drops below altitude 10° 04:19:53 10° 36° (NE) 1,976 5.7 -15.1°
Sets 04:22:25 0° 23° (NNE) 2,881 6.7 -15.5°
